CW0003 Weather Reports


time (UTC)temp
C
wind
direction
speed
KPH
gust
KPH
rain 1hr
cm
rain 24hr
cm
rain mn
cm
humidity
%
barometer
mb
20220627204524 23 0.0 0.0 0.00 0.86 0.86 94 1010.7
20220627203010 23 0.0 0.0 0.00 0.86 0.86 95 1010.8
20220627201506 23 0.0 0.0 0.00 0.86 0.86 95 1010.8
20220627200100 23 0.0 0.0 0.00 0.86 0.86 95 1010.9
20220627194553 23 0.0 0.0 0.00 0.86 0.86 94 1010.9
20220627193044 22 0.0 0.0 0.00 0.86 0.86 94 1011.0
20220627191538 22 0.0 0.0 0.03 0.86 0.86 94 1011.2
20220627190032 22 0.0 0.0 0.10 0.86 0.86 95 1011.0
20220627184525 22 0.0 0.0 0.10 0.86 0.86 94 1011.1
20220627183018 22 0.0 0.0 0.10 0.86 0.86 94 1011.2
20220627181514 22 0.0 0.0 0.08 0.84 0.84 93 1011.2
20220627180006 22 0.0 0.0 0.00 0.76 0.76 94 1011.3
20220627174557 22 0.0 0.0 0.00 0.76 0.76 94 1011.3
20220627173055 22 0.0 0.0 0.00 0.76 0.76 94 1011.5
20220627171549 22 0.0 0.0 0.00 0.76 0.76 95 1011.5
20220627170043 22 0.0 0.0 0.03 0.76 0.76 95 1011.2
20220627164535 22 0.0 0.0 0.03 0.76 0.76 95 1011.4
20220627163025 22 0.0 0.0 0.03 0.76 0.76 94 1011.4
20220627161519 22 0.0 0.0 0.03 0.76 0.76 94 1011.2
20220627160015 22 0.0 0.0 0.05 0.71 0.71 94 1011.2
20220627154507 22 0.0 0.0 0.56 0.71 0.71 93 1011.3
20220627153104 22 0.0 0.0 0.69 0.71 0.71 92 1011.3
20220627151553 22 0.0 0.0 0.71 0.71 0.71 91 1011.2
20220627150046 22 0.0 0.0 0.69 0.69 0.69 90 1011.2
20220627144541 22 0.0 0.0 0.20 0.20 0.20 88 1011.3
20220627143040 22 140 4.8 14.5 0.05 0.05 0.05 87 1011.1
20220627141536 23 115 3.2 16.1 0.00 0.00 0.00 86 1011.0
20220627140030 22 179 3.2 20.9 0.00 0.00 0.00 86 1011.1
20220627134526 22 170 6.4 22.5 0.00 0.00 0.00 85 1011.0
20220627133025 22 162 3.2 14.5 0.00 0.00 0.00 86 1011.2
20220627131537 22 200 3.2 20.9 0.00 0.00 0.00 86 1011.2
20220627130016 22 147 3.2 14.5 0.00 0.00 0.00 85 1011.0
20220627124512 22 219 6.4 20.9 0.00 0.00 0.00 85 1010.9
20220627123010 22 360 9.7 25.7 0.00 0.00 0.00 86 1010.7
20220627121501 21 138 6.4 17.7 0.00 0.00 0.00 86 1011.0
20220627120058 21 0.0 0.0 0.00 0.00 0.00 86 1011.2
20220627114552 21 0.0 0.0 0.00 0.00 0.00 86 1011.3
20220627113044 21 0.0 0.0 0.00 0.00 0.00 86 1011.1
20220627111541 21 0.0 0.0 0.00 0.00 0.00 85 1011.3
20220627110035 21 0.0 0.0 0.00 0.00 0.00 85 1011.3
20220627104524 20 0.0 0.0 0.00 0.00 0.00 85 1011.3
20220627103018 20 0.0 0.0 0.00 0.00 0.00 86 1011.5
20220627101512 20 0.0 0.0 0.00 0.00 0.00 85 1011.8
20220627100002 20 0.0 0.0 0.00 0.00 0.00 86 1011.8
20220627094555 20 0.0 0.0 0.00 0.00 0.00 85 1011.9
20220627093051 20 0.0 0.0 0.00 0.00 0.00 85 1012.0
20220627091543 20 0.0 0.0 0.00 0.00 0.00 84 1012.2
20220627090036 20 0.0 0.0 0.00 0.00 0.00 83 1012.2
20220627084529 20 0.0 0.0 0.00 0.00 0.00 82 1012.5
20220627083023 20 0.0 0.0 0.00 0.00 0.00 82 1012.4
20220627081516 20 0.0 0.0 0.00 0.00 0.00 80 1012.5
20220627080010 20 0.0 0.0 0.00 0.00 0.00 79 1012.6
20220627074502 20 0.0 0.0 0.00 0.00 0.00 78 1012.7
20220627073056 20 0.0 0.0 0.00 0.00 0.00 77 1013.0
20220627071553 20 0.0 0.0 0.00 0.00 0.00 76 1013.1
20220627070043 20 0.0 0.0 0.00 0.00 0.00 75 1013.3
20220627064546 20 0.0 0.0 0.00 0.00 0.00 74 1013.5
20220627063029 20 0.0 0.0 0.00 0.00 0.00 72 1013.6
20220627061523 20 0.0 0.0 0.00 0.00 0.00 71 1013.6
20220627060019 20 0.0 0.0 0.00 0.00 0.00 71 1013.7
20220627054511 20 0.0 0.0 0.00 0.00 0.00 70 1013.7
20220627053011 20 0.0 0.0 0.00 0.00 0.00 70 1013.8
20220627051601 21 0.0 0.0 0.00 0.00 0.00 70 1014.2
20220627050054 21 0.0 0.0 0.00 0.00 0.00 71 1014.0
20220627044551 21 0.0 0.0 0.00 0.00 0.00 71 1014.3
20220627043041 21 0.0 0.0 0.00 0.00 0.00 70 1014.4
20220627041532 21 0.0 0.0 0.00 0.00 0.00 71 1014.4
20220627040026 21 0.0 0.0 0.00 0.00 0.00 70 1014.7
20220627034533 21 0.0 0.0 0.00 0.00 0.00 71 1014.8
20220627033013 21 0.0 0.0 0.00 0.00 0.00 74 1015.0
20220627031506 21 0.0 0.0 0.00 0.00 0.00 77 1014.7
20220627030101 22 0.0 0.0 0.00 0.00 0.00 79 1014.7
20220627024553 22 0.0 0.0 0.00 0.00 0.00 81 1014.8
20220627023057 22 0.0 0.0 0.00 0.00 0.00 81 1014.9
20220627021549 22 0.0 0.0 0.00 0.00 0.00 82 1015.1
20220627020031 22 0.0 0.0 0.00 0.00 0.00 81 1015.1
20220627014524 23 0.0 0.0 0.00 0.00 0.00 80 1014.9
20220627013017 23 0.0 0.0 0.00 0.00 0.00 78 1014.8
20220627011511 23 0.0 0.0 0.00 0.00 0.00 76 1014.7
20220627010049 24 0.0 0.0 0.00 0.00 0.00 75 1014.6
20220627004537 25 0.0 0.0 0.00 0.00 0.00 73 1014.4
20220627003029 25 0.0 0.0 0.00 0.00 0.00 72 1014.3
20220627001523 25 0.0 0.0 0.00 0.00 0.00 71 1014.3
20220627000018 26 0.0 0.0 0.00 0.00 0.00 69 1014.2
20220626234512 26 115 3.2 12.9 0.00 0.00 0.00 68 1014.2
20220626233012 27 129 4.8 17.7 0.00 0.00 0.00 67 1014.1
20220626231503 27 119 3.2 17.7 0.00 0.00 0.00 69 1014.0
20220626230101 27 123 8.0 17.7 0.00 0.00 0.00 66 1013.9
20220626224557 28 136 9.7 27.4 0.00 0.00 0.00 64 1013.7
20220626223101 28 126 4.8 20.9 0.00 0.00 0.00 64 1013.6
20220626221552 29 131 11.3 25.7 0.00 0.00 0.00 63 1013.7
20220626220046 30 360 9.7 20.9 0.00 0.00 0.00 62 1013.7
20220626214542 30 146 11.3 25.7 0.00 0.00 0.00 59 1013.6
20220626213039 30 360 6.4 24.1 0.00 0.00 0.00 56 1013.6
20220626211536 30 172 9.7 14.5 0.00 0.00 0.00 56 1013.9
20220626210032 31 122 1.6 12.9 0.00 0.00 0.00 61 1013.9